Home > Weather > Dallas > Past weeks

Flag for USA Past Weather in Dallas, Texas, USA — Yesterday and Last 2 Weeks

Now
78 °F

Clear.


Feels Like: 81 °F
Forecast: 74 / 92 °F
Wind: 7 mph from South

Location: Dallas Love Field

Current Time: Aug 24, 2016 at 5:29:34 AM

Latest Report: Aug 24, 2016 at 4:53 AM


Visibility: 10 mi

Pressure: 30.05 "Hg

Humidity: 82%

Dew Point: 72 °F

Location of DallasLocation

Past Weather in Dallas — Graph

°F

Dallas Temperature Yesterday

Maximum temperature yesterday: 95 °F (at 3:53 PM)
Minimum temperature yesterday: 78 °F (at 1:53 AM)
Average temperature yesterday: 85 °F

High & Low Weather Summary for the Past Weeks

 TemperatureHumidityPressure
High105 °F (Aug 12, 2:53 PM)96% (Aug 19, 6:53 PM)30.11 "Hg (Aug 19, 6:53 PM)
Low71 °F (Aug 19, 5:53 PM)27% (Aug 11, 4:53 PM)29.69 "Hg (Aug 12, 3:53 PM)
Average83 °F70%29.95 "Hg
* Reported Aug 9 3:53 AM — Aug 24 3:53 AM, Dallas, Weather by CustomWeather, © 2016

Note: Actual official high and low records may vary slightly from our data, if they occured in-between our weather recording intervals... More about our weather records

Advertising

Dallas Weather History for the Previous 24 Hours

Scroll right to see more
 ConditionsComfort  
Time TempWeatherWind HumidityBarometerVisibility
3:53 AM
Wed, Aug 24
80 °FPassing clouds.9 mph76%30.06 "Hg10 mi
2:53 AM81 °FPassing clouds.8 mph77%30.06 "Hg10 mi
1:53 AM82 °FPassing clouds.12 mph74%30.06 "Hg10 mi
12:53 AM83 °FClear.14 mph72%30.07 "Hg10 mi
11:53 PM
Tue, Aug 23
84 °FClear.13 mph70%30.06 "Hg10 mi
10:53 PM85 °FClear.15 mph68%30.06 "Hg10 mi
9:53 PM86 °FPassing clouds.15 mph63%30.04 "Hg10 mi
8:53 PM88 °FPassing clouds.14 mph59%30.02 "Hg10 mi
7:53 PM90 °FPassing clouds.15 mph52%29.99 "Hg10 mi
6:53 PM92 °FPassing clouds.18 mph46%29.99 "Hg10 mi
5:53 PM93 °FScattered clouds.22 mph46%30.00 "Hg10 mi
4:53 PM94 °FScattered clouds.21 mph46%30.01 "Hg10 mi
3:53 PM95 °FScattered clouds.17 mph47%30.02 "Hg10 mi
2:53 PM93 °FBroken clouds.16 mph47%30.05 "Hg10 mi
1:53 PM91 °FBroken clouds.16 mph54%30.07 "Hg10 mi
12:53 PM90 °FPartly sunny.13 mph56%30.09 "Hg10 mi
11:53 AM87 °FPartly sunny.14 mph59%30.11 "Hg10 mi
10:53 AM86 °FBroken clouds.13 mph63%30.11 "Hg10 mi
9:53 AM83 °FBroken clouds.14 mph72%30.11 "Hg10 mi
8:53 AM81 °FPartly sunny.10 mph77%30.10 "Hg10 mi
7:53 AM79 °FPartly cloudy.12 mph82%30.09 "Hg10 mi
6:53 AM79 °FPassing clouds.10 mph84%30.08 "Hg10 mi
5:53 AM79 °FOvercast.7 mph84%30.06 "Hg10 mi
Weather by CustomWeather, © 2016

See weather overviewHow to use our weather pages